| time (UTC) | temp F | wind direction | speed MPH | gust MPH | rain 1hr in | rain 24hr in | rain mn in | humidity % | barometer mb |
| 20260903110021 | 0 | 0.0 | 0.0 | 0.00 | 0.02 | 0.00 | 1014.2 | ||
| 20260903104517 | 67 | 219 | 0.0 | 0.0 | 0.00 | 0.02 | 0.00 | 3 | 1014.3 |
| 20260903103101 | 67 | 219 | 0.0 | 0.0 | 0.00 | 0.02 | 0.00 | 3 | 1014.3 |
| 20260903101600 | 66 | 219 | 0.0 | 0.0 | 0.00 | 0.02 | 0.00 | 3 | 1014.3 |
| 20260903100054 | 66 | 219 | 0.0 | 0.0 | 0.00 | 0.02 | 0.00 | 3 | 1014.5 |
| 20260903094550 | 66 | 219 | 0.0 | 0.0 | 0.00 | 0.02 | 0.00 | 3 | 1014.6 |
| 20260903093043 | 66 | 219 | 0.0 | 0.0 | 0.00 | 0.02 | 0.00 | 3 | 1014.7 |
| 20260903091539 | 66 | 219 | 0.0 | 0.0 | 0.00 | 0.02 | 0.00 | 3 | 1014.9 |
| 20260903090034 | 65 | 219 | 0.0 | 0.0 | 0.00 | 0.02 | 0.00 | 3 | 1015.1 |
| 20260903084529 | 65 | 219 | 0.0 | 0.0 | 0.00 | 0.02 | 0.00 | 3 | 1015.0 |
| 20260903083011 | 65 | 220 | 0.0 | 0.0 | 0.00 | 0.02 | 0.00 | 3 | 1015.3 |
| 20260903081508 | 65 | 219 | 0.0 | 0.0 | 0.00 | 0.02 | 0.00 | 3 | 1015.2 |
| 20260903080042 | 65 | 219 | 0.0 | 0.0 | 0.00 | 0.02 | 0.00 | 3 | 1015.2 |
| 20260903074536 | 65 | 219 | 0.0 | 0.0 | 0.00 | 0.02 | 0.00 | 3 | 1015.2 |
| 20260903073015 | 65 | 219 | 0.0 | 0.0 | 0.00 | 0.02 | 0.00 | 3 | 1015.4 |
| 20260903071510 | 65 | 208 | 0.0 | 0.0 | 0.00 | 0.02 | 0.00 | 3 | 1015.4 |
| 20260903070049 | 65 | 208 | 0.0 | 0.0 | 0.00 | 0.02 | 0.00 | 3 | 1015.5 |
| 20260903064544 | 65 | 208 | 0.0 | 0.0 | 0.00 | 0.02 | 0.02 | 3 | 1015.5 |
| 20260903063023 | 65 | 208 | 0.0 | 0.0 | 0.00 | 0.02 | 0.02 | 3 | 1015.7 |
| 20260903061523 | 65 | 217 | 0.0 | 0.0 | 0.00 | 0.02 | 0.02 | 3 | 1015.7 |
| 20260903060057 | 65 | 204 | 0.0 | 0.0 | 0.00 | 0.02 | 0.02 | 3 | 1015.7 |
| 20260903054552 | 65 | 200 | 0.0 | 0.0 | 0.00 | 0.02 | 0.02 | 3 | 1015.8 |
| 20260903053031 | 65 | 200 | 0.0 | 0.0 | 0.00 | 0.02 | 0.02 | 3 | 1015.9 |
| 20260903051526 | 65 | 200 | 0.0 | 0.0 | 0.00 | 0.02 | 0.02 | 3 | 1016.0 |
| 20260903050004 | 65 | 200 | 0.0 | 0.0 | 0.00 | 0.02 | 0.02 | 3 | 1016.1 |
| 20260903044600 | 66 | 198 | 0.0 | 0.0 | 0.00 | 0.02 | 0.02 | 3 | 1016.0 |
| 20260903043043 | 66 | 150 | 0.0 | 0.0 | 0.00 | 0.02 | 0.02 | 3 | 1016.0 |
| 20260903041535 | 67 | 215 | 0.0 | 0.0 | 0.00 | 0.02 | 0.02 | 3 | 1016.1 |
| 20260903040013 | 67 | 217 | 0.0 | 0.0 | 0.00 | 0.02 | 0.02 | 3 | 1016.0 |
| 20260903034509 | 67 | 222 | 0.0 | 0.0 | 0.00 | 0.02 | 0.02 | 3 | 1015.7 |
| 20260903033052 | 67 | 211 | 0.0 | 0.0 | 0.00 | 0.02 | 0.02 | 3 | 1015.6 |
| 20260903031551 | 67 | 224 | 0.0 | 0.0 | 0.00 | 0.02 | 0.02 | 3 | 1015.4 |
| 20260903030044 | 66 | 208 | 0.0 | 0.0 | 0.00 | 0.02 | 0.02 | 12 | 1015.3 |
| 20260903024540 | 66 | 222 | 0.0 | 1.0 | 0.00 | 0.02 | 0.02 | 31 | 1015.3 |
| 20260903023035 | 67 | 217 | 0.0 | 1.0 | 0.00 | 0.02 | 0.02 | 52 | 1015.2 |
| 20260903021530 | 68 | 218 | 0.0 | 1.0 | 0.00 | 0.02 | 0.02 | 58 | 1015.3 |
| 20260903020045 | 69 | 243 | 0.0 | 1.0 | 0.00 | 0.02 | 0.02 | 61 | 1015.2 |
| 20260903014521 | 71 | 236 | 0.0 | 0.0 | 0.00 | 0.02 | 0.02 | 60 | 1015.4 |
| 20260903013059 | 71 | 208 | 0.0 | 2.0 | 0.00 | 0.02 | 0.02 | 61 | 1015.4 |
| 20260903011603 | 71 | 285 | 0.0 | 2.0 | 0.00 | 0.02 | 0.02 | 60 | 1015.4 |
| 20260903010033 | 72 | 303 | 0.0 | 1.0 | 0.00 | 0.02 | 0.02 | 58 | 1015.3 |
| 20260903004528 | 71 | 277 | 0.0 | 6.0 | 0.00 | 0.02 | 0.02 | 60 | 1015.2 |
| 20260903003008 | 72 | 259 | 0.0 | 7.0 | 0.00 | 0.02 | 0.02 | 59 | 1015.2 |
| 20260903001503 | 73 | 276 | 0.0 | 5.0 | 0.00 | 0.02 | 0.02 | 58 | 1015.3 |
| 20260903000041 | 73 | 271 | 0.0 | 4.0 | 0.00 | 0.02 | 0.02 | 55 | 1015.3 |
| 20260902234539 | 74 | 195 | 0.0 | 3.0 | 0.00 | 0.02 | 0.02 | 54 | 1015.4 |
| 20260902233016 | 74 | 210 | 0.0 | 1.0 | 0.00 | 0.02 | 0.02 | 56 | 1015.5 |
| 20260902231516 | 74 | 221 | 0.0 | 3.0 | 0.00 | 0.02 | 0.02 | 57 | 1015.5 |
| 20260902230111 | 74 | 166 | 0.0 | 4.0 | 0.00 | 0.02 | 0.02 | 56 | 1015.7 |
| 20260902224545 | 74 | 184 | 0.0 | 4.0 | 0.00 | 0.02 | 0.02 | 55 | 1015.8 |
| 20260902223041 | 74 | 285 | 0.0 | 2.0 | 0.00 | 0.02 | 0.02 | 56 | 1015.8 |
| 20260902221525 | 74 | 291 | 0.0 | 1.0 | 0.00 | 0.02 | 0.02 | 56 | 1015.8 |
| 20260902220020 | 75 | 193 | 0.0 | 7.0 | 0.00 | 0.02 | 0.02 | 55 | 1016.0 |
| 20260902214555 | 75 | 287 | 0.0 | 1.0 | 0.00 | 0.02 | 0.02 | 53 | 1016.1 |
| 20260902213049 | 75 | 247 | 0.0 | 1.0 | 0.00 | 0.02 | 0.02 | 53 | 1016.1 |
| 20260902211528 | 74 | 217 | 0.0 | 1.0 | 0.00 | 0.02 | 0.02 | 53 | 1016.1 |
| 20260902210023 | 74 | 301 | 0.0 | 1.0 | 0.00 | 0.02 | 0.02 | 54 | 1016.4 |
| 20260902204507 | 74 | 288 | 0.0 | 2.0 | 0.00 | 0.02 | 0.02 | 55 | 1016.3 |
| 20260902203101 | 74 | 186 | 0.0 | 0.0 | 0.00 | 0.02 | 0.02 | 54 | 1016.5 |
| 20260902201604 | 72 | 231 | 0.0 | 0.0 | 0.00 | 0.02 | 0.02 | 55 | 1016.5 |
| 20260902200051 | 72 | 206 | 0.0 | 0.0 | 0.00 | 0.02 | 0.02 | 54 | 1016.6 |
| 20260902194547 | 70 | 197 | 0.0 | 1.0 | 0.00 | 0.02 | 0.02 | 53 | 1016.7 |
| 20260902193042 | 70 | 181 | 0.0 | 1.0 | 0.00 | 0.02 | 0.02 | 50 | 1016.7 |
| 20260902191539 | 70 | 293 | 0.0 | 1.0 | 0.00 | 0.02 | 0.02 | 41 | 1016.9 |
| 20260902190033 | 71 | 278 | 0.0 | 1.0 | 0.00 | 0.02 | 0.02 | 26 | 1016.9 |
| 20260902184510 | 72 | 176 | 0.0 | 1.0 | 0.00 | 0.02 | 0.02 | 3 | 1016.9 |
| 20260902183007 | 73 | 212 | 0.0 | 0.0 | 0.00 | 0.02 | 0.02 | 3 | 1016.9 |
| 20260902181552 | 71 | 239 | 0.0 | 0.0 | 0.00 | 0.02 | 0.02 | 3 | 1016.9 |
| 20260902180040 | 70 | 269 | 0.0 | 0.0 | 0.00 | 0.02 | 0.02 | 3 | 1016.8 |
| 20260902174518 | 70 | 231 | 0.0 | 1.0 | 0.00 | 0.02 | 0.02 | 3 | 1016.7 |
| 20260902173023 | 70 | 232 | 0.0 | 0.0 | 0.00 | 0.02 | 0.02 | 3 | 1016.6 |
| 20260902171605 | 69 | 183 | 0.0 | 0.0 | 0.00 | 0.02 | 0.02 | 3 | 1016.5 |
| 20260902170048 | 68 | 236 | 0.0 | 1.0 | 0.00 | 0.02 | 0.02 | 3 | 1016.3 |
| 20260902164525 | 67 | 203 | 0.0 | 1.0 | 0.00 | 0.02 | 0.02 | 3 | 1016.2 |
| 20260902163021 | 66 | 200 | 0.0 | 0.0 | 0.00 | 0.02 | 0.02 | 3 | 1016.0 |
| 20260902161600 | 65 | 221 | 0.0 | 0.0 | 0.01 | 0.02 | 0.02 | 3 | 1016.0 |
| 20260902160113 | 65 | 211 | 0.0 | 1.0 | 0.02 | 0.02 | 0.02 | 3 | 1016.1 |
| 20260902154539 | 65 | 203 | 0.0 | 0.0 | 0.02 | 0.02 | 0.02 | 3 | 1016.0 |
| 20260902153035 | 65 | 146 | 0.0 | 0.0 | 0.02 | 0.02 | 0.02 | 3 | 1016.0 |
| 20260902151529 | 65 | 120 | 0.0 | 0.0 | 0.01 | 0.01 | 0.01 | 3 | 1015.8 |
| 20260902150026 | 65 | 214 | 0.0 | 0.0 | 0.00 | 0.00 | 0.00 | 3 | 1015.8 |
| 20260902144520 | 0 | 0.0 | 0.0 | 0.00 | 0.00 | 0.00 | 1015.6 | ||
| 20260902143016 | 0 | 0.0 | 0.0 | 0.00 | 0.00 | 0.00 | 1015.5 | ||
| 20260902141514 | 0 | 0.0 | 0.0 | 0.00 | 0.00 | 0.00 | 1015.1 | ||
| 20260902140008 | 0 | 0.0 | 0.0 | 0.00 | 0.00 | 0.00 | 1015.0 | ||
| 20260902134549 | 0 | 0.0 | 0.0 | 0.00 | 0.00 | 0.00 | 1014.9 | ||
| 20260902133052 | 0 | 0.0 | 0.0 | 0.00 | 0.00 | 0.00 | 1014.9 | ||
| 20260902131520 | 0 | 0.0 | 0.0 | 0.00 | 0.00 | 0.00 | 1014.9 | ||
| 20260902130016 | 0 | 0.0 | 0.0 | 0.00 | 0.00 | 0.00 | 1014.7 | ||
| 20260902124554 | 0 | 0.0 | 0.0 | 0.00 | 0.00 | 0.00 | 1014.7 | ||
| 20260902123101 | 0 | 0.0 | 0.0 | 0.00 | 0.00 | 0.00 | 1014.7 | ||
| 20260902121529 | 0 | 0.0 | 0.0 | 0.00 | 0.00 | 0.00 | 1014.8 | ||
| 20260902120033 | 0 | 0.0 | 0.0 | 0.00 | 0.00 | 0.00 | 1014.8 | ||
| 20260902114503 | 63 | 143 | 0.0 | 0.0 | 0.00 | 0.00 | 0.00 | 3 | 1014.8 |
| 20260902113103 | 65 | 181 | 0.0 | 0.0 | 0.00 | 0.00 | 0.00 | 3 | 1014.9 |
| 20260902111544 | 65 | 181 | 0.0 | 0.0 | 0.00 | 0.00 | 0.00 | 3 | 1014.8 |